Torna al catalogo

STARLINK-36701

AttivoComunicazioniSSO
NORAD 67658·PAYLOAD·🇺🇸 United States

Lanciato Feb 2, 2026 da Vandenberg Space Force Base

Loading…

Prossimi Passaggi (prossime 24 ore)

TLE

AggiornatoSource: CelesTrak SupGP

Epoca: Sep 15, 2026, 03:35 UTC

1 67658C 26022L   26258.14979167 -.00038660  00000+0 -12002-2 0  2580
2 67658  97.2839 289.7653 0001164  91.7861 340.3639 15.33457610    10

Traccia STARLINK-36701 in tempo reale con AllMySat

Download on the App Store